Location: Wolf Creek Estates Observatory
(33.4774°N, 105.6743°W)
Time: 16:33:03
(UTC-06:00)

Envisat - Visible Passes

Search period start: 22 July 2018 00:00
Search period end: 01 August 2018 00:00
Orbit: 764 x 766 km, 98.2° (Epoch: 22 July)

Date Brightness Start Highest point End Pass type
(mag) Time Alt. Az. Time Alt. Az. Time Alt. Az.
22 Jul 5.1 21:12:42 10° SSW 21:16:49 25° W 21:20:58 10° NW visible
23 Jul 3.6 20:34:58 10° S 20:39:58 61° W 20:45:00 10° NNW visible
24 Jul 5.7 21:40:15 10° WSW 21:42:35 13° W 21:44:56 10° WNW visible
25 Jul 4.7 21:01:07 10° SSW 21:05:36 32° W 21:10:08 10° NW visible
26 Jul 3.2 20:23:44 10° S 20:28:48 79° WSW 20:33:53 10° NNW visible
27 Jul 5.6 21:28:02 10° SW 21:31:20 17° W 21:34:38 10° NW visible
28 Jul 4.3 20:49:38 10° S 20:54:23 42° W 20:59:12 10° NNW visible
30 Jul 5.3 21:16:10 10° SSW 21:20:05 22° W 21:24:01 10° NW visible
31 Jul 3.8 20:38:16 10° S 20:43:12 54° W 20:48:11 10° NNW visible
